This demonstration page uses our WeatherBlox Daily Observations layout. Learn more.

Left ArrowRight Arrow

39.12711, -84.51439

Hourly Observations for March 17, 2021

Temp ( °F °C ) Dew Point ( °F °C ) Humidity (%) Winds ( mph kmh ) Pressure ( in mb ) Visibility ( mi km ) Precip ( " mm )
12:09 am 00:09 Cloudy with Mist and Fog 38 3.3 37 2.8 97 97 Calm 30.05 1018 1.25 2.011675 0 0
12:17 am 00:17 Mostly Cloudy with Fog 40 4.4 38 3.3 93 93 Calm 30.05 1018 0.25 0.402335 0 0
12:53 am 00:53 Mostly Cloudy with Fog 36 2.2 35 1.7 97 97 Calm 30.04 1017 0.25 0.402335 0 0
1:15 am 01:15 Mostly Cloudy with Fog 38 3.3 37 2.8 97 97 Calm 30.06 1018 N/A 0 0
1:22 am 01:22 Mostly Cloudy with Fog 38 3.3 37 2.8 97 97 Calm 30.06 1018 0.25 0.402335 0 0
1:53 am 01:53 Mostly Cloudy with Fog 39 3.9 38 3.3 96 96 NNE 3 6 30.04 1017 0.25 0.402335 0 0
2:15 am 02:15 Mostly Cloudy with Fog 40 4.4 39 3.9 97 97 NE 5 7 30.06 1018 0.5 0.80467 0 0
2:34 am 02:34 Cloudy with Mist and Fog 41 5 40 4.4 96 96 NNE 3 6 30.07 1018 1 1.60934 0 0
2:48 am 02:48 Cloudy with Mist and Fog 41 5 39 4 93 93 NNE 3 6 30.07 1018 3 4.82802 0 0
2:53 am 02:53 Cloudy with Mist and Fog 41 5 41 5 100 100 N 3 6 30.06 1018 3 4.82802 0 0
3:41 am 03:41 Cloudy with Mist and Fog 42 5.6 41 5 96 96 NE 6 9 30.07 1018 5 8.0467 0 0
3:53 am 03:53 Cloudy with Mist and Fog 43 6.1 42 5.6 97 97 NE 7 11 30.06 1018 5 8.0467 0 0
4:36 am 04:36 Cloudy with Mist and Fog 43 6.1 42 5.6 97 97 ENE 6 9 30.08 1018 4 6.43736 0 0
4:53 am 04:53 Cloudy with Mist and Fog 43 6.1 42 5.6 97 97 NE 6 9 30.07 1018 4 6.43736 0 0
5:45 am 05:45 Cloudy with Mist and Fog 43 6.1 42 5.6 97 97 NNE 3 6 30.1 1019 2.5 4.02335 0 0
5:53 am 05:53 Cloudy with Mist and Fog 43 6.1 42 5.6 97 97 NNE 6 9 30.09 1019 3 4.82802 0 0
6:02 am 06:02 Cloudy with Mist and Fog 43 6.1 42 5.6 97 97 NNE 6 9 30.1 1019 2.5 4.02335 0 0
6:22 am 06:22 Cloudy with Mist and Fog 43 6.1 42 5.6 97 97 E 7 11 30.08 1018 1.5 2.41401 0 0
6:39 am 06:39 Cloudy with Mist and Fog 43 6.1 42 5.6 97 97 NE 6 9 30.09 1019 1.5 2.41401 0 0
6:53 am 06:53 Cloudy with Mist and Fog 43 6.1 42 5.6 97 97 NE 6 9 30.07 1018 2 3.21868 0 0
7:00 am 07:00 Cloudy with Mist and Fog 42 5.6 41 5 96 96 NE 6 9 30.09 1019 1.75 2.816345 0 0
7:27 am 07:27 Cloudy with Mist and Fog 42 5.6 41 5 96 96 ENE 6 9 30.09 1019 2.5 4.02335 0 0
7:41 am 07:41 Cloudy with Mist and Fog 42 5.6 41 5 96 96 ENE 6 9 30.09 1019 3 4.82802 0 0
7:53 am 07:53 Cloudy with Mist and Fog 42 5.6 41 5 96 96 NE 5 7 30.07 1018 4 6.43736 0 0
8:07 am 08:07 Cloudy with Mist and Fog 42 5.6 41 5 96 96 NE 6 9 30.1 1019 2 3.21868 0 0
8:45 am 08:45 Cloudy with Mist and Fog 42 5.6 41 5 96 96 NE 7 11 30.09 1019 3 4.82802 0 0
8:53 am 08:53 Cloudy with Mist and Fog 42 5.6 41 5 96 96 ENE 8 13 30.08 1019 3 4.82802 0 0
9:17 am 09:17 Cloudy with Mist and Fog 42 5.6 41 5 96 96 NE 9 15 30.08 1019 2.5 4.02335 0 0
9:26 am 09:26 Cloudy with Mist and Fog 42 5.6 41 5 96 96 ENE 7 11 30.08 1019 3 4.82802 0 0
9:53 am 09:53 Cloudy with Mist and Fog 43 6.1 41 5 93 93 E 7 11 30.07 1018 5 8.0467 0 0
10:19 am 10:19 Cloudy with Mist and Fog 44 6.7 42 5.6 93 93 NE 6 9 30.05 1018 5 8.0467 0 0
10:53 am 10:53 Cloudy with Mist and Fog 46 7.8 42 5.6 86 86 VRB 5 7 30.05 1018 5 8.0467 0 0
11:53 am 11:53 Cloudy 49 9.4 44 6.7 83 83 E 7 11 29.99 1016 7 11.26538 0 0
12:21 pm 12:21 Partly Cloudy 52 11.1 45 7.2 77 77 NE 3 6 30 1016 7 11.26538 0 0
12:53 pm 12:53 Sunny 54 12.2 46 7.8 75 75 E 5 7 29.98 1015 9 14.48406 0 0
1:53 pm 13:53 Sunny 58 14.4 46 7.8 65 65 SSW 5 7 29.98 1015 10 16.0934 0 0
2:53 pm 14:53 Sunny 60 15.6 45 7.2 58 58 VRB 3 6 29.93 1014 10 16.0934 0 0
3:53 pm 15:53 Sunny 62 16.7 47 8.3 58 58 VRB 6 9 29.91 1013 10 16.0934 0 0
4:53 pm 16:53 Sunny 63 17.2 48 8.9 58 58 S 8 13 29.88 1012 10 16.0934 0 0
5:53 pm 17:53 Cloudy 63 17.2 49 9.4 60 60 SSE 3 6 29.88 1012 10 16.0934 0 0
6:53 pm 18:53 Cloudy with Light Rain 59 15 52 11.1 78 78 S 3 6 29.88 1012 7 11.26538 0.001 0.001
7:53 pm 19:53 Cloudy with Light Rain 56 13.3 53 11.7 90 90 Calm 29.85 1011 8 12.87472 0.02 0.508
8:53 pm 20:53 Cloudy 56 13.3 54 12.2 93 93 NNW 7 11 29.81 1009 10 16.0934 0.001 0.001
9:53 pm 21:53 Cloudy 55 12.8 53 11.7 93 93 N 3 6 29.79 1009 9 14.48406 0.001 0.001
10:53 pm 22:53 Cloudy with Mist and Fog 55 12.8 53 11.7 93 93 Calm 29.76 1008 6 9.65604 0.01 0.254
11:41 pm 23:41 Cloudy with Light Rain 54 12.2 53 11.7 97 97 Calm 29.76 1008 2.5 4.02335 0.02 0.508
11:53 pm 23:53 Cloudy with Mist and Fog 54 12.2 53 11.7 97 97 Calm 29.75 1008 2.5 4.02335 0.02 0.508

Powered by AerisWeather